Time,TemperatureF,DewpointF,PressureIn,WindDirection,WindDirectionDegrees,WindSpeedMPH,WindSpeedGustMPH,Humidity,HourlyPrecipIn,Conditions,Clouds,dailyrainin,SoftwareType,DateUTC
2013-08-23 00:00:00,74.0,69.2,29.81,SE,135,2.0,6.0,85,-1.12,,,0.00,Weather View 32 v70,2013-08-23 04:00:00,
2013-08-23 00:04:00,73.0,68.2,29.81,ESE,112,1.0,6.0,85,-1.12,,,0.00,Weather View 32 v70,2013-08-23 04:04:00,
2013-08-23 00:09:00,73.0,68.2,29.81,ENE,68,1.0,6.0,85,-1.12,,,0.00,Weather View 32 v70,2013-08-23 04:09:00,
2013-08-23 00:14:00,73.0,68.2,29.81,SSE,158,3.0,6.0,85,-1.12,,,0.00,Weather View 32 v70,2013-08-23 04:14:00,
2013-08-23 00:20:00,73.0,68.2,29.82,South,180,2.0,6.0,85,-1.12,,,0.00,Weather View 32 v70,2013-08-23 04:20:00,
2013-08-23 00:24:00,73.0,68.2,29.82,SE,135,3.0,6.0,85,-1.12,,,0.00,Weather View 32 v70,2013-08-23 04:24:00,
2013-08-23 00:34:00,73.0,68.5,29.82,SSE,158,2.0,6.0,86,-1.12,,,0.00,Weather View 32 v70,2013-08-23 04:34:00,
2013-08-23 00:39:00,73.0,68.5,29.82,NW,315,1.0,6.0,86,-1.12,,,0.00,Weather View 32 v70,2013-08-23 04:39:00,
2013-08-23 00:49:00,73.0,68.5,29.82,SSW,202,3.0,5.0,86,-1.12,,,0.00,Weather View 32 v70,2013-08-23 04:49:00,
2013-08-23 01:00:00,73.0,69.6,29.82,NNE,22,0.0,5.0,89,0.00,,,0.00,Weather View 32 v70,2013-08-23 05:00:00,
2013-08-23 01:09:00,73.0,70.2,29.82,South,180,1.0,5.0,91,0.00,,,0.00,Weather View 32 v70,2013-08-23 05:09:00,
2013-08-23 01:14:00,73.0,70.5,29.82,South,180,1.0,5.0,92,0.00,,,0.00,Weather View 32 v70,2013-08-23 05:14:00,
2013-08-23 01:24:00,73.0,70.8,29.83,SE,135,2.0,5.0,93,0.00,,,0.00,Weather View 32 v70,2013-08-23 05:24:00,
2013-08-23 01:34:00,73.0,71.2,29.83,SW,225,1.0,5.0,94,0.00,,,0.00,Weather View 32 v70,2013-08-23 05:34:00,
2013-08-23 01:44:00,73.0,71.5,29.83,East,90,1.0,5.0,95,0.00,,,0.00,Weather View 32 v70,2013-08-23 05:44:00,
2013-08-23 01:49:00,73.0,71.5,29.83,SSE,158,1.0,5.0,95,0.00,,,0.00,Weather View 32 v70,2013-08-23 05:49:00,
2013-08-23 01:59:00,73.0,71.5,29.83,South,180,3.0,4.0,95,0.00,,,0.00,Weather View 32 v70,2013-08-23 05:59:00,
2013-08-23 02:09:00,73.0,71.8,29.83,SW,225,2.0,6.0,96,0.00,,,0.00,Weather View 32 v70,2013-08-23 06:09:00,
2013-08-23 02:14:00,73.0,71.8,29.83,SW,225,3.0,6.0,96,0.00,,,0.00,Weather View 32 v70,2013-08-23 06:14:00,
2013-08-23 02:20:00,73.0,72.1,29.83,SW,225,3.0,6.0,97,0.00,,,0.00,Weather View 32 v70,2013-08-23 06:20:00,
2013-08-23 02:29:00,73.0,72.1,29.83,WSW,248,3.0,6.0,97,0.00,,,0.00,Weather View 32 v70,2013-08-23 06:29:00,
2013-08-23 02:34:00,73.0,72.1,29.83,SW,225,4.0,7.0,97,0.00,,,0.00,Weather View 32 v70,2013-08-23 06:34:00,
2013-08-23 02:44:00,73.0,72.1,29.82,SSW,202,3.0,7.0,97,0.00,,,0.00,Weather View 32 v70,2013-08-23 06:44:00,
2013-08-23 02:54:00,73.0,72.1,29.83,WSW,248,3.0,7.0,97,0.00,,,0.00,Weather View 32 v70,2013-08-23 06:54:00,
2013-08-23 03:04:00,73.0,72.1,29.83,WSW,248,2.0,7.0,97,0.00,,,0.00,Weather View 32 v70,2013-08-23 07:04:00,
2013-08-23 03:14:00,73.0,72.1,29.83,SSW,202,2.0,7.0,97,0.00,,,0.00,Weather View 32 v70,2013-08-23 07:14:00,
2013-08-23 03:24:00,73.0,72.1,29.83,SSW,202,3.0,7.0,97,0.00,,,0.00,Weather View 32 v70,2013-08-23 07:24:00,
2013-08-23 03:34:00,73.0,72.1,29.83,West,270,2.0,6.0,97,0.00,,,0.00,Weather View 32 v70,2013-08-23 07:34:00,
2013-08-23 03:39:00,73.0,72.1,29.82,SW,225,4.0,6.0,97,0.00,,,0.00,Weather View 32 v70,2013-08-23 07:39:00,
2013-08-23 03:49:00,73.0,72.1,29.83,WSW,248,3.0,7.0,97,0.00,,,0.00,Weather View 32 v70,2013-08-23 07:49:00,
2013-08-23 04:00:00,73.0,72.1,29.83,West,270,3.0,7.0,97,0.00,,,0.00,Weather View 32 v70,2013-08-23 08:00:00,
2013-08-23 04:10:00,73.0,72.1,29.82,SW,225,2.0,7.0,97,0.00,,,0.00,Weather View 32 v70,2013-08-23 08:10:00,
2013-08-23 04:19:00,72.0,71.1,29.83,SE,135,2.0,7.0,97,0.00,,,0.00,Weather View 32 v70,2013-08-23 08:19:00,
2013-08-23 04:24:00,72.0,71.1,29.83,NNE,22,1.0,7.0,97,0.00,,,0.00,Weather View 32 v70,2013-08-23 08:24:00,
2013-08-23 04:34:00,72.0,71.1,29.83,NE,45,1.0,7.0,97,0.00,,,0.00,Weather View 32 v70,2013-08-23 08:34:00,
2013-08-23 04:44:00,71.0,70.4,29.83,NW,315,0.0,7.0,98,0.00,,,0.00,Weather View 32 v70,2013-08-23 08:44:00,
2013-08-23 04:54:00,71.0,70.7,29.84,SW,225,3.0,7.0,99,0.00,,,0.00,Weather View 32 v70,2013-08-23 08:54:00,
2013-08-23 05:04:00,70.0,69.7,29.84,East,90,1.0,6.0,99,0.00,,,0.00,Weather View 32 v70,2013-08-23 09:04:00,
2013-08-23 05:14:00,69.0,68.7,29.84,ESE,112,2.0,5.0,99,0.00,,,0.00,Weather View 32 v70,2013-08-23 09:14:00,
2013-08-23 05:24:00,69.0,68.7,29.84,ENE,68,1.0,5.0,99,0.00,,,0.00,Weather View 32 v70,2013-08-23 09:24:00,
2013-08-23 05:34:00,69.0,68.4,29.84,ENE,68,1.0,5.0,98,0.00,,,0.00,Weather View 32 v70,2013-08-23 09:34:00,
2013-08-23 05:44:00,69.0,68.1,29.85,West,270,3.0,5.0,97,0.00,,,0.00,Weather View 32 v70,2013-08-23 09:44:00,
2013-08-23 05:54:00,69.0,68.1,29.85,NNE,22,0.0,4.0,97,0.00,,,0.00,Weather View 32 v70,2013-08-23 09:54:00,
2013-08-23 06:04:00,68.0,67.1,29.86,ENE,68,0.0,3.0,97,0.00,,,0.00,Weather View 32 v70,2013-08-23 10:04:00,
2013-08-23 06:10:00,68.0,67.1,29.86,East,90,0.0,3.0,97,0.00,,,0.00,Weather View 32 v70,2013-08-23 10:10:00,
2013-08-23 06:20:00,69.0,67.8,29.86,WSW,248,2.0,3.0,96,0.00,,,0.00,Weather View 32 v70,2013-08-23 10:20:00,
2013-08-23 06:29:00,69.0,67.8,29.86,ESE,112,1.0,3.0,96,0.00,,,0.00,Weather View 32 v70,2013-08-23 10:29:00,
2013-08-23 06:34:00,69.0,67.8,29.87,ESE,112,1.0,3.0,96,0.00,,,0.00,Weather View 32 v70,2013-08-23 10:34:00,
2013-08-23 06:44:00,69.0,67.8,29.87,WSW,248,1.0,3.0,96,0.00,,,0.00,Weather View 32 v70,2013-08-23 10:44:00,
2013-08-23 06:54:00,69.0,67.5,29.87,WNW,292,1.0,3.0,95,0.00,,,0.00,Weather View 32 v70,2013-08-23 10:54:00,
2013-08-23 07:00:00,69.0,67.5,29.88,SSW,202,2.0,3.0,95,0.00,,,0.00,Weather View 32 v70,2013-08-23 11:00:00,
2013-08-23 07:09:00,70.0,68.5,29.88,South,180,3.0,5.0,95,0.00,,,0.00,Weather View 32 v70,2013-08-23 11:09:00,
2013-08-23 07:15:00,70.0,68.5,29.88,WNW,292,3.0,5.0,95,0.00,,,0.00,Weather View 32 v70,2013-08-23 11:15:00,
2013-08-23 07:24:00,71.0,70.1,29.89,West,270,2.0,6.0,97,0.00,,,0.00,Weather View 32 v70,2013-08-23 11:24:00,
2013-08-23 07:29:00,71.0,70.1,29.89,SW,225,2.0,6.0,97,0.00,,,0.00,Weather View 32 v70,2013-08-23 11:29:00,
2013-08-23 07:39:00,71.0,70.1,29.89,West,270,4.0,6.0,97,0.00,,,0.00,Weather View 32 v70,2013-08-23 11:39:00,
2013-08-23 07:44:00,71.0,70.4,29.90,SW,225,3.0,6.0,98,0.00,,,0.00,Weather View 32 v70,2013-08-23 11:44:00,
2013-08-23 07:49:00,71.0,70.4,29.89,West,270,2.0,6.0,98,0.00,,,0.00,Weather View 32 v70,2013-08-23 11:49:00,
2013-08-23 07:59:00,71.0,70.1,29.90,West,270,3.0,7.0,97,0.00,,,0.00,Weather View 32 v70,2013-08-23 11:59:00,
2013-08-23 08:04:00,72.0,71.1,29.90,West,270,2.0,8.0,97,0.00,,,0.00,Weather View 32 v70,2013-08-23 12:04:00,
2013-08-23 08:10:00,72.0,70.8,29.90,South,180,3.0,8.0,96,0.00,,,0.00,Weather View 32 v70,2013-08-23 12:10:00,
2013-08-23 08:19:00,72.0,70.8,29.90,SW,225,2.0,8.0,96,0.00,,,0.00,Weather View 32 v70,2013-08-23 12:19:00,
2013-08-23 08:24:00,72.0,70.8,29.90,NW,315,1.0,8.0,96,0.00,,,0.00,Weather View 32 v70,2013-08-23 12:24:00,
2013-08-23 08:35:00,72.0,70.8,29.90,South,180,2.0,8.0,96,0.00,,,0.00,Weather View 32 v70,2013-08-23 12:35:00,
2013-08-23 08:40:00,72.0,70.8,29.90,NW,315,1.0,8.0,96,0.00,,,0.00,Weather View 32 v70,2013-08-23 12:40:00,
2013-08-23 08:50:00,73.0,71.8,29.90,SSE,158,3.0,8.0,96,0.00,,,0.00,Weather View 32 v70,2013-08-23 12:50:00,
2013-08-23 08:59:00,73.0,71.2,29.91,NW,315,1.0,8.0,94,0.00,,,0.00,Weather View 32 v70,2013-08-23 12:59:00,
2013-08-23 09:04:00,73.0,70.8,29.90,WSW,248,4.0,8.0,93,0.00,,,0.00,Weather View 32 v70,2013-08-23 13:04:00,
2013-08-23 09:09:00,73.0,70.2,29.91,West,270,3.0,8.0,91,0.00,,,0.00,Weather View 32 v70,2013-08-23 13:09:00,
2013-08-23 09:14:00,73.0,70.2,29.91,NW,315,4.0,8.0,91,0.00,,,0.00,Weather View 32 v70,2013-08-23 13:14:00,
2013-08-23 09:24:00,73.0,69.2,29.91,WSW,248,5.0,8.0,88,0.00,,,0.00,Weather View 32 v70,2013-08-23 13:24:00,
2013-08-23 09:30:00,73.0,69.2,29.91,NW,315,3.0,8.0,88,0.00,,,0.00,Weather View 32 v70,2013-08-23 13:30:00,
2013-08-23 09:39:00,73.0,69.2,29.91,West,270,5.0,8.0,88,0.00,,,0.00,Weather View 32 v70,2013-08-23 13:39:00,
2013-08-23 09:45:00,73.0,69.2,29.91,WSW,248,3.0,8.0,88,0.00,,,0.00,Weather View 32 v70,2013-08-23 13:45:00,
2013-08-23 09:54:00,73.0,69.2,29.91,West,270,3.0,8.0,88,0.00,,,0.00,Weather View 32 v70,2013-08-23 13:54:00,
2013-08-23 10:00:00,73.0,69.2,29.91,NW,315,3.0,8.0,88,0.00,,,0.00,Weather View 32 v70,2013-08-23 14:00:00,
2013-08-23 10:09:00,73.0,69.2,29.92,West,270,6.0,8.0,88,0.00,,,0.00,Weather View 32 v70,2013-08-23 14:09:00,
2013-08-23 10:14:00,73.0,68.9,29.92,WSW,248,3.0,8.0,87,0.00,,,0.00,Weather View 32 v70,2013-08-23 14:14:00,
2013-08-23 10:20:00,73.0,68.5,29.92,West,270,6.0,8.0,86,0.00,,,0.00,Weather View 32 v70,2013-08-23 14:20:00,
2013-08-23 10:29:00,73.0,68.2,29.92,WNW,292,3.0,8.0,85,0.00,,,0.00,Weather View 32 v70,2013-08-23 14:29:00,
2013-08-23 10:34:00,73.0,68.2,29.92,WSW,248,3.0,8.0,85,0.00,,,0.00,Weather View 32 v70,2013-08-23 14:34:00,
2013-08-23 10:39:00,73.0,67.9,29.92,West,270,3.0,8.0,84,0.00,,,0.00,Weather View 32 v70,2013-08-23 14:39:00,
2013-08-23 10:44:00,73.0,67.9,29.92,WSW,248,3.0,8.0,84,0.00,,,0.00,Weather View 32 v70,2013-08-23 14:44:00,
2013-08-23 10:55:00,74.0,68.1,29.92,SSW,202,1.0,8.0,82,0.00,,,0.00,Weather View 32 v70,2013-08-23 14:55:00,
2013-08-23 11:00:00,74.0,67.4,29.92,North,0,1.0,8.0,80,0.00,,,0.00,Weather View 32 v70,2013-08-23 15:00:00,
2013-08-23 11:09:00,75.0,66.5,29.92,SSW,202,2.0,8.0,75,0.00,,,0.00,Weather View 32 v70,2013-08-23 15:09:00,
2013-08-23 11:20:00,75.0,64.9,29.92,South,180,3.0,8.0,71,0.00,,,0.00,Weather View 32 v70,2013-08-23 15:20:00,
2013-08-23 11:29:00,75.0,64.9,29.92,SSW,202,3.0,8.0,71,0.00,,,0.00,Weather View 32 v70,2013-08-23 15:29:00,
2013-08-23 11:40:00,76.0,64.2,29.92,SW,225,3.0,8.0,67,0.00,,,0.00,Weather View 32 v70,2013-08-23 15:40:00,
2013-08-23 11:49:00,77.0,63.4,29.92,SW,225,5.0,8.0,63,0.00,,,0.00,Weather View 32 v70,2013-08-23 15:49:00,
2013-08-23 11:55:00,77.0,60.5,29.92,WNW,292,5.0,11.0,57,0.00,,,0.00,Weather View 32 v70,2013-08-23 15:55:00,
2013-08-23 12:04:00,78.0,58.9,29.92,WSW,248,5.0,14.0,52,0.00,,,0.00,Weather View 32 v70,2013-08-23 16:04:00,
2013-08-23 12:10:00,78.0,57.2,29.92,NNW,338,4.0,14.0,49,0.00,,,0.00,Weather View 32 v70,2013-08-23 16:10:00,
2013-08-23 12:20:00,78.0,56.7,29.93,WSW,248,10.0,14.0,48,0.00,,,0.00,Weather View 32 v70,2013-08-23 16:20:00,
2013-08-23 12:29:00,78.0,57.2,29.93,West,270,6.0,14.0,49,0.00,,,0.00,Weather View 32 v70,2013-08-23 16:29:00,
2013-08-23 12:40:00,78.0,57.8,29.93,West,270,7.0,14.0,50,0.00,,,0.00,Weather View 32 v70,2013-08-23 16:40:00,
2013-08-23 12:50:00,79.0,59.8,29.93,SW,225,4.0,14.0,52,0.00,,,0.00,Weather View 32 v70,2013-08-23 16:50:00,
2013-08-23 12:59:00,79.0,60.3,29.93,SSW,202,3.0,14.0,53,0.00,,,0.00,Weather View 32 v70,2013-08-23 16:59:00,
2013-08-23 13:05:00,79.0,60.3,29.93,SSW,202,7.0,13.0,53,0.00,,,0.00,Weather View 32 v70,2013-08-23 17:05:00,
2013-08-23 13:10:00,79.0,60.9,29.93,West,270,5.0,13.0,54,0.00,,,0.00,Weather View 32 v70,2013-08-23 17:10:00,
2013-08-23 13:20:00,79.0,60.3,29.93,West,270,5.0,12.0,53,0.00,,,0.00,Weather View 32 v70,2013-08-23 17:20:00,
2013-08-23 13:29:00,78.0,57.8,29.93,West,270,6.0,14.0,50,0.00,,,0.00,Weather View 32 v70,2013-08-23 17:29:00,
2013-08-23 13:40:00,79.0,59.3,29.93,WSW,248,3.0,14.0,51,0.00,,,0.00,Weather View 32 v70,2013-08-23 17:40:00,
2013-08-23 13:50:00,78.0,57.8,29.93,West,270,6.0,14.0,50,0.00,,,0.00,Weather View 32 v70,2013-08-23 17:50:00,
2013-08-23 14:00:00,79.0,58.1,29.93,West,270,6.0,14.0,49,0.00,,,0.00,Weather View 32 v70,2013-08-23 18:00:00,
2013-08-23 14:09:00,79.0,58.7,29.93,WSW,248,3.0,14.0,50,0.00,,,0.00,Weather View 32 v70,2013-08-23 18:09:00,
2013-08-23 14:19:00,79.0,59.3,29.92,SW,225,5.0,14.0,51,0.00,,,0.00,Weather View 32 v70,2013-08-23 18:19:00,
2013-08-23 14:30:00,78.0,58.3,29.92,SW,225,7.0,13.0,51,0.00,,,0.00,Weather View 32 v70,2013-08-23 18:30:00,
2013-08-23 14:40:00,79.0,60.9,29.92,WSW,248,3.0,13.0,54,0.00,,,0.00,Weather View 32 v70,2013-08-23 18:40:00,
2013-08-23 14:49:00,79.0,59.8,29.92,SW,225,5.0,10.0,52,0.00,,,0.00,Weather View 32 v70,2013-08-23 18:49:00,
2013-08-23 14:59:00,78.0,58.3,29.92,West,270,6.0,9.0,51,0.00,,,0.00,Weather View 32 v70,2013-08-23 18:59:00,
2013-08-23 15:05:00,78.0,59.4,29.92,SW,225,3.0,9.0,53,0.00,,,0.00,Weather View 32 v70,2013-08-23 19:05:00,
2013-08-23 15:14:00,78.0,59.4,29.92,WSW,248,3.0,9.0,53,0.00,,,0.00,Weather View 32 v70,2013-08-23 19:14:00,
2013-08-23 15:19:00,78.0,60.0,29.92,SW,225,3.0,9.0,54,0.00,,,0.00,Weather View 32 v70,2013-08-23 19:19:00,
2013-08-23 15:25:00,78.0,61.0,29.91,West,270,1.0,9.0,56,0.00,,,0.00,Weather View 32 v70,2013-08-23 19:25:00,
2013-08-23 15:30:00,78.0,61.5,29.92,SW,225,3.0,9.0,57,0.00,,,0.00,Weather View 32 v70,2013-08-23 19:30:00,
2013-08-23 15:39:00,78.0,61.5,29.92,SW,225,4.0,9.0,57,0.00,,,0.00,Weather View 32 v70,2013-08-23 19:39:00,
2013-08-23 15:44:00,78.0,61.5,29.92,WSW,248,3.0,8.0,57,0.00,,,0.00,Weather View 32 v70,2013-08-23 19:44:00,
2013-08-23 15:49:00,78.0,62.0,29.92,SW,225,3.0,8.0,58,0.00,,,0.00,Weather View 32 v70,2013-08-23 19:49:00,
2013-08-23 15:59:00,78.0,63.4,29.91,West,270,2.0,8.0,61,0.00,,,0.00,Weather View 32 v70,2013-08-23 19:59:00,
2013-08-23 16:05:00,78.0,63.4,29.92,West,270,3.0,7.0,61,0.00,,,0.00,Weather View 32 v70,2013-08-23 20:05:00,
2013-08-23 16:15:00,77.0,62.5,29.92,SSW,202,2.0,7.0,61,0.00,,,0.00,Weather View 32 v70,2013-08-23 20:15:00,
2013-08-23 16:24:00,77.0,62.0,29.91,WSW,248,2.0,7.0,60,0.00,,,0.00,Weather View 32 v70,2013-08-23 20:24:00,
2013-08-23 16:35:00,78.0,63.4,29.91,WNW,292,3.0,7.0,61,0.00,,,0.00,Weather View 32 v70,2013-08-23 20:35:00,
2013-08-23 16:40:00,78.0,63.4,29.91,WNW,292,3.0,7.0,61,0.00,,,0.00,Weather View 32 v70,2013-08-23 20:40:00,
2013-08-23 16:50:00,78.0,63.4,29.91,SW,225,1.0,6.0,61,0.00,,,0.00,Weather View 32 v70,2013-08-23 20:50:00,
2013-08-23 16:54:00,78.0,62.9,29.91,SSW,202,1.0,6.0,60,0.00,,,0.00,Weather View 32 v70,2013-08-23 20:54:00,
2013-08-23 17:04:00,78.0,62.5,29.92,SW,225,2.0,6.0,59,0.00,,,0.00,Weather View 32 v70,2013-08-23 21:04:00,
2013-08-23 17:10:00,78.0,62.9,29.92,NNE,22,0.0,6.0,60,0.00,,,0.00,Weather View 32 v70,2013-08-23 21:10:00,
2013-08-23 17:19:00,79.0,63.4,29.92,SSW,202,2.0,6.0,59,0.00,,,0.00,Weather View 32 v70,2013-08-23 21:19:00,
2013-08-23 17:24:00,79.0,65.3,29.92,South,180,5.0,7.0,63,0.00,,,0.00,Weather View 32 v70,2013-08-23 21:24:00,
2013-08-23 17:30:00,79.0,66.2,29.92,SW,225,3.0,8.0,65,0.00,,,0.00,Weather View 32 v70,2013-08-23 21:30:00,
2013-08-23 17:39:00,79.0,63.9,29.92,South,180,5.0,8.0,60,0.00,,,0.00,Weather View 32 v70,2013-08-23 21:39:00,
2013-08-23 17:45:00,79.0,64.3,29.92,SW,225,5.0,8.0,61,0.00,,,0.00,Weather View 32 v70,2013-08-23 21:45:00,
2013-08-23 17:54:00,79.0,64.8,29.92,WSW,248,2.0,9.0,62,0.00,,,0.00,Weather View 32 v70,2013-08-23 21:54:00,
2013-08-23 18:00:00,79.0,63.4,29.92,WSW,248,3.0,9.0,59,0.00,,,0.00,Weather View 32 v70,2013-08-23 22:00:00,
2013-08-23 18:10:00,79.0,59.8,29.92,SW,225,5.0,9.0,52,0.00,,,0.00,Weather View 32 v70,2013-08-23 22:10:00,
2013-08-23 18:20:00,79.0,60.9,29.92,SW,225,5.0,9.0,54,0.00,,,0.00,Weather View 32 v70,2013-08-23 22:20:00,
2013-08-23 18:30:00,80.0,62.3,29.92,SSW,202,3.0,9.0,55,0.00,,,0.00,Weather View 32 v70,2013-08-23 22:30:00,
2013-08-23 18:39:00,79.0,61.4,29.92,South,180,3.0,9.0,55,0.00,,,0.00,Weather View 32 v70,2013-08-23 22:39:00,
2013-08-23 18:45:00,79.0,61.9,29.92,SSW,202,3.0,9.0,56,0.00,,,0.00,Weather View 32 v70,2013-08-23 22:45:00,
2013-08-23 18:50:00,79.0,61.9,29.92,WNW,292,3.0,8.0,56,0.00,,,0.00,Weather View 32 v70,2013-08-23 22:50:00,
2013-08-23 18:59:00,79.0,62.9,29.93,West,270,3.0,8.0,58,0.00,,,0.00,Weather View 32 v70,2013-08-23 22:59:00,
2013-08-23 19:05:00,79.0,62.9,29.93,WSW,248,2.0,8.0,58,0.00,,,0.00,Weather View 32 v70,2013-08-23 23:05:00,
2013-08-23 19:10:00,79.0,62.9,29.93,NW,315,1.0,8.0,58,0.00,,,0.00,Weather View 32 v70,2013-08-23 23:10:00,
2013-08-23 19:20:00,79.0,63.9,29.93,West,270,0.0,8.0,60,0.00,,,0.00,Weather View 32 v70,2013-08-23 23:20:00,
2013-08-23 19:29:00,78.0,62.9,29.93,North,0,0.0,7.0,60,0.00,,,0.00,Weather View 32 v70,2013-08-23 23:29:00,
2013-08-23 19:34:00,77.0,62.9,29.94,WSW,248,1.0,7.0,62,0.00,,,0.00,Weather View 32 v70,2013-08-23 23:34:00,
2013-08-23 19:45:00,76.0,63.8,29.94,West,270,1.0,5.0,66,0.00,,,0.00,Weather View 32 v70,2013-08-23 23:45:00,
2013-08-23 19:54:00,74.0,63.6,29.94,SW,225,1.0,4.0,70,0.00,,,0.00,Weather View 32 v70,2013-08-23 23:54:00,
2013-08-23 20:00:00,74.0,64.4,29.94,West,270,1.0,4.0,72,0.00,,,0.00,Weather View 32 v70,2013-08-24 00:00:00,
2013-08-23 20:09:00,73.0,64.2,29.95,West,270,1.0,3.0,74,0.00,,,0.00,Weather View 32 v70,2013-08-24 00:09:00,
2013-08-23 20:20:00,72.0,64.4,29.95,WSW,248,1.0,2.0,77,0.00,,,0.00,Weather View 32 v70,2013-08-24 00:20:00,
2013-08-23 20:29:00,72.0,65.1,29.96,WNW,292,1.0,2.0,79,0.00,,,0.00,Weather View 32 v70,2013-08-24 00:29:00,
2013-08-23 20:40:00,71.0,64.5,29.96,WNW,292,1.0,2.0,80,0.00,,,0.00,Weather View 32 v70,2013-08-24 00:40:00,
2013-08-23 20:47:00,71.0,64.9,29.96,NW,315,1.0,2.0,81,0.00,,,0.00,Weather View 32 v70,2013-08-24 00:47:00,
2013-08-23 20:54:00,71.0,65.6,29.97,North,0,2.0,3.0,83,0.00,,,0.00,Weather View 32 v70,2013-08-24 00:54:00,
2013-08-23 20:59:00,70.0,65.3,29.97,North,0,1.0,5.0,85,0.00,,,0.00,Weather View 32 v70,2013-08-24 00:59:00,
2013-08-23 21:04:00,70.0,65.6,29.97,WSW,248,2.0,5.0,86,0.00,,,0.00,Weather View 32 v70,2013-08-24 01:04:00,
2013-08-23 21:10:00,70.0,66.3,29.98,West,270,2.0,5.0,88,0.00,,,0.00,Weather View 32 v70,2013-08-24 01:10:00,
2013-08-23 21:20:00,69.0,65.9,29.98,SW,225,2.0,5.0,90,0.00,,,0.00,Weather View 32 v70,2013-08-24 01:20:00,
2013-08-23 21:29:00,69.0,66.9,29.99,WSW,248,3.0,5.0,93,0.00,,,0.00,Weather View 32 v70,2013-08-24 01:29:00,
2013-08-23 21:35:00,69.0,67.2,29.99,West,270,5.0,6.0,94,0.00,,,0.00,Weather View 32 v70,2013-08-24 01:35:00,
2013-08-23 21:44:00,69.0,67.2,30.00,West,270,2.0,6.0,94,0.00,,,0.00,Weather View 32 v70,2013-08-24 01:44:00,
2013-08-23 21:49:00,69.0,67.2,30.00,West,270,1.0,6.0,94,0.00,,,0.00,Weather View 32 v70,2013-08-24 01:49:00,
2013-08-23 21:55:00,69.0,67.2,30.00,WNW,292,1.0,6.0,94,0.00,,,0.00,Weather View 32 v70,2013-08-24 01:55:00,
2013-08-23 22:00:00,69.0,67.2,30.00,NW,315,1.0,6.0,94,0.00,,,0.00,Weather View 32 v70,2013-08-24 02:00:00,
2013-08-23 22:09:00,69.0,67.2,30.00,NW,315,1.0,6.0,94,0.00,,,0.00,Weather View 32 v70,2013-08-24 02:09:00,
2013-08-23 22:15:00,69.0,67.2,30.00,NNE,22,1.0,6.0,94,0.00,,,0.00,Weather View 32 v70,2013-08-24 02:15:00,
2013-08-23 22:24:00,69.0,67.2,30.00,West,270,1.0,6.0,94,0.00,,,0.00,Weather View 32 v70,2013-08-24 02:24:00,
2013-08-23 22:30:00,69.0,67.5,30.00,West,270,1.0,6.0,95,0.00,,,0.00,Weather View 32 v70,2013-08-24 02:30:00,
2013-08-23 22:39:00,69.0,67.5,30.00,WNW,292,1.0,5.0,95,0.00,,,0.00,Weather View 32 v70,2013-08-24 02:39:00,
2013-08-23 22:45:00,69.0,67.8,30.01,WSW,248,1.0,3.0,96,0.00,,,0.00,Weather View 32 v70,2013-08-24 02:45:00,
2013-08-23 22:50:00,69.0,67.8,30.01,West,270,2.0,3.0,96,0.00,,,0.00,Weather View 32 v70,2013-08-24 02:50:00,
2013-08-23 22:55:00,69.0,67.8,30.01,SW,225,2.0,3.0,96,0.00,,,0.00,Weather View 32 v70,2013-08-24 02:55:00,
2013-08-23 23:00:00,69.0,67.8,30.01,SW,225,2.0,3.0,96,0.00,,,0.00,Weather View 32 v70,2013-08-24 03:00:00,
2013-08-23 23:04:00,69.0,67.8,30.01,NNW,338,0.0,3.0,96,0.00,,,0.00,Weather View 32 v70,2013-08-24 03:04:00,
2013-08-23 23:10:00,69.0,67.5,30.01,West,270,1.0,3.0,95,0.00,,,0.00,Weather View 32 v70,2013-08-24 03:10:00,
2013-08-23 23:19:00,69.0,67.2,30.01,NW,315,1.0,3.0,94,0.00,,,0.00,Weather View 32 v70,2013-08-24 03:19:00,
2013-08-23 23:25:00,69.0,67.2,30.02,NW,315,1.0,3.0,94,0.00,,,0.00,Weather View 32 v70,2013-08-24 03:25:00,
2013-08-23 23:34:00,68.0,66.2,30.02,WNW,292,1.0,3.0,94,0.00,,,0.00,Weather View 32 v70,2013-08-24 03:34:00,
2013-08-23 23:40:00,68.0,66.2,30.02,WNW,292,2.0,3.0,94,0.00,,,0.00,Weather View 32 v70,2013-08-24 03:40:00,
2013-08-23 23:48:00,68.0,66.2,30.02,West,270,1.0,3.0,94,0.00,,,0.00,Weather View 32 v70,2013-08-24 03:48:00,
2013-08-23 23:54:00,68.0,66.5,30.02,NNW,338,0.0,3.0,95,0.00,,,0.00,Weather View 32 v70,2013-08-24 03:54:00,